Regional Weather Roundup
Issued by NWS Newport/Morehead, NC

Current Version | Previous Version | Graphics & Text | Print | Product List | Glossary On
Versions: 1 2 3 4 5 6 7 8 9 10 11 12 13 14 15 16 17 18 19 20 21 22 23 24 25 26 27 28 29 30 31 32 33 34 35 36 37 38 39 40 41 42 43 44 45 46 47 48 49 50
731 ASUS42 KMHX 112025 RWRMHX WEATHER ROUNDUP FOR EASTERN NORTH CAROLINA NATIONAL WEATHER SERVICE NEWPORT/MOREHEAD CITY NC 300 PM EST THU FEB 11 2016 NOTE: "FAIR" INDICATES FEW OR NO CLOUDS BELOW 12,000 FEET WITH NO SIGNIFICANT WEATHER AND/OR OBSTRUCTIONS TO VISIBILITY NCZ015>017-031-032-045>047-102-103-112100- NORTH COAST CITY SKY/WX TMP DP RH WIND PRES REMARKS EDENTON SUNNY 39 6 26 NW12G18 30.15S ELIZABETH CITY SUNNY 36 8 31 W16G24 30.14R KITTY HAWK CLEAR 37 8 31 W10G18 30.12S MANTEO SUNNY 35 9 34 NW12G21 30.15R $$ NCZ045>047-081-094-103-104-112100- CENTRAL COAST CITY SKY/WX TMP DP RH WIND PRES REMARKS FRISCO SUNNY 38 13 35 W13G20 30.15R SWANQUARTER N/A 39 N/A N/A W10G18 30.12S $$ NCZ095-097-098-100-101-112100- SOUTHERN COAST CITY SKY/WX TMP DP RH WIND PRES REMARKS BEAUFORT SUNNY 42 11 28 NW15 30.15S CEDAR ISLAND N/A 39 N/A N/A NW7G18 30.21S JACKSONVILLE SUNNY 43 12 28 W14G22 30.16S PINEY ISLAND CLEAR N/A N/A N/A W14G21 30.15R WILMINGTON SUNNY 46 16 30 W9 30.16F $$ NCZ011>013-027>030-043-044-078>080-089-090>093-098-112100- COASTAL PLAIN CITY SKY/WX TMP DP RH WIND PRES REMARKS AHOSKIE SUNNY 36 6 28 CALM 30.15S CLINTON SUNNY 43 16 33 NW8 30.16F ELIZABETHTOWN SUNNY 44 15 31 W8 30.16F GOLDSBORO SUNNY 43 5 21 W12 30.13F GREENVILLE SUNNY 39 7 26 NW7G16 30.16F HAVELOCK SUNNY 42 8 24 W15G23 30.16S KENANSVILLE SUNNY 41 12 30 W10G23 30.17S KINSTON SUNNY 41 5 22 W10 30.17S NEW BERN SUNNY 41 9 26 W12G20 30.17R RICHLANDS SUNNY 43 12 28 W8G16 30.16F ROCKY MOUNT SUNNY 39 7 26 NW14G21 30.16S WASHINGTON SUNNY 39 8 27 NW9G17 30.16R WHITEVILLE SUNNY 46 17 31 NW6 30.15F $$ AMZ130-135-150-152-154-156-158-170-250-252-270-ANZ085-086-088-633-658-670-112100- MARINE OBSERVATIONS STATION/POSITION TIME TEMP WIND PRES WAVE SWELL AIR SEA DIR/SP/G HT/PER HT/PER (UTC) (F) (DEG/KT/KT) (MB) (FT/S) (FT/S) CHESAPEAKE LIGHT 2000 32 310/ 20/ 23 1020.9 64 E VA BEACH 1950 32 48 290/ 19/ 25 1019.3 7/ 6 2/11 DUCK 2000 34 270/ 10/ 15 1019.8 2 E DUCK 1911 44 N/A 2/12 2/12 OREGON INLET 2000 34 41 290/ 12/ 15 1020.5 13E OREGON INLT 1900 46 N/A 5/ 6 2/13 HATTERAS CG 2000 36 45 270/ 15/ 18 1020.6 DIAMOND BUOY 1950 38 58 300/ 19/ 23 1021.0 5/ 5 2/10 CAPE LOOKOUT NOT AVBL BEAUFORT LAB 2000 41 44 280/ 6/ 12 1020.0 30 SE NEW RVR IN 1908 40 59 1021.7 30 SE NEW RVR IN 1925 59 N/A 4/ 8 2/13 27 SE WRIGHTSVLE 1908 43 60 360/ 10/ 16 1020.6 5 SE WRIGHTSVLE 1908 42 51 280/ 12/ 19 1022.0 225 S CAPE HAT 1950 54 68 290/ 21/ 29 N/A 12/ 9 8/ 9 41 SE CHARLESTON 1950 46 62 270/ 6/ 8 1022.3 4/ 6 3/ 6 $$

USA.gov is the U.S. government's official web portal to all federal, state and local government web resources and services.